Weather History for Wautoma, WI

Change the Weather History Date:

Friday, February 7, 2014

  Actual Average (KPCZ) Record (KPCZ)
Temperature  
Mean Temperature 3 °F -  
Max Temperature 14 °F 27 °F 44 °F (2009)
Min Temperature -8 °F 5 °F -22 °F (1962)
Degree Days  
Heating Degree Days 62    
Moisture  
Dew Point -10 °F    
Average Humidity 61    
Maximum Humidity 79    
Minimum Humidity 39    
Precipitation  
Precipitation 0.00 in - - ()
Sea Level Pressure  
Sea Level Pressure 30.26 in    
Wind  
Wind Speed 9 mph (WSW)    
Max Wind Speed 20 mph    
Max Gust Speed 26 mph    
Visibility 10 miles    
Events      
Averages and records for this station are not official NWS values.
T = Trace of Precipitation, MM = Missing Value Source: NWS Daily Summary

Daily Weather History Graph

Daily Weather History Graph

Search for Another Location

Airport:

Trip Planner

Search our weather history database for the weather conditions in past years. The results will help you decide how hot, cold, wet, or windy it might be!

Date:

Astronomy

Feb. 07, 2014 Rise Set
Actual Time 7:07 AM CST 5:15 PM CST
Civil Twilight 6:37 AM CST 5:46 PM CST
Nautical Twilight 6:03 AM CST 6:20 PM CST
Astronomical Twilight 5:29 AM CST 6:53 PM CST
Moon 11:24 AM CST (2/7) 1:25 AM CST (2/7)
Length of Visible Light 11h 08m
Length of Day
10h 08m
First Quarter, 59% of the Moon is Illuminated
Feb 7
First Quarter
Feb 14
Full
Feb 22
Last Quarter
Mar 1
New
Mar 8
First Quarter

Hourly Weather History & Observations

Time (CST) Temp. Windchill Dew Point Humidity Pressure Visibility Wind Dir Wind Speed Gust Speed Precip Events Conditions
12:56 AM -4.9 °F -20.1 °F -11.9 °F 72% 30.29 in 10.0 mi SW 8.1 mph - N/A   Clear
1:56 AM -6.9 °F -21.2 °F -11.9 °F 79% 30.29 in 10.0 mi WSW 6.9 mph - N/A   Clear
2:56 AM -8.0 °F -22.5 °F -13.0 °F 79% 30.27 in 10.0 mi SW 6.9 mph - N/A   Clear
3:19 AM -7.6 °F -20.6 °F -13.0 °F 77% 30.21 in 10.0 mi SW 5.8 mph - N/A   Mostly Cloudy
3:56 AM -8.0 °F -22.5 °F -13.0 °F 79% 30.27 in 10.0 mi SW 6.9 mph - N/A   Mostly Cloudy
4:06 AM -7.6 °F -22.1 °F -13.0 °F 77% 30.20 in 10.0 mi SW 6.9 mph - N/A   Scattered Clouds
4:56 AM -8.0 °F -22.5 °F -13.9 °F 75% 30.27 in 10.0 mi SW 6.9 mph - N/A   Clear
5:56 AM -8.0 °F -22.5 °F -13.0 °F 79% 30.27 in 10.0 mi WSW 6.9 mph - N/A   Clear
6:56 AM -8.0 °F -22.5 °F -13.0 °F 79% 30.26 in 10.0 mi WSW 6.9 mph - N/A   Clear
7:56 AM -6.0 °F -21.5 °F -11.9 °F 75% 30.27 in 10.0 mi SW 8.1 mph - N/A   Clear
8:56 AM 0.1 °F -15.1 °F -8.9 °F 66% 30.28 in 10.0 mi WSW 9.2 mph - N/A   Clear
9:56 AM 4.1 °F -12.7 °F -8.0 °F 57% 30.28 in 10.0 mi WSW 12.7 mph - N/A   Clear
10:56 AM 8.1 °F -8.4 °F -8.0 °F 48% 30.27 in 10.0 mi WSW 13.8 mph - N/A   Clear
11:56 AM 10.0 °F -7.1 °F -8.0 °F 44% 30.25 in 10.0 mi WSW 16.1 mph - N/A   Clear
12:56 PM 12.0 °F -6.0 °F -6.9 °F 43% 30.22 in 10.0 mi West 19.6 mph 26.5 mph N/A   Clear
1:56 PM 14.0 °F -1.4 °F -6.9 °F 39% 30.22 in 10.0 mi WSW 15.0 mph 21.9 mph N/A   Clear
2:56 PM 14.0 °F 0.5 °F -6.0 °F 41% 30.23 in 10.0 mi WSW 11.5 mph - N/A   Clear
3:56 PM 14.0 °F -2.0 °F -6.9 °F 39% 30.22 in 10.0 mi West 16.1 mph - N/A   Clear
4:56 PM 12.0 °F -2.7 °F -6.9 °F 43% 30.23 in 10.0 mi West 12.7 mph - N/A   Clear
5:56 PM 9.1 °F -1.9 °F -8.9 °F 44% 30.25 in 10.0 mi SW 6.9 mph - N/A   Clear
6:56 PM 7.2 °F -5.4 °F -9.9 °F 46% 30.26 in 10.0 mi WSW 8.1 mph - N/A   Clear
7:56 PM 5.0 °F -8.1 °F -9.9 °F 50% 30.27 in 10.0 mi WSW 8.1 mph - N/A   Clear
8:56 PM 4.1 °F -9.2 °F -8.0 °F 57% 30.27 in 10.0 mi WSW 8.1 mph - N/A   Clear
9:56 PM 3.0 °F -8.0 °F -6.9 °F 63% 30.27 in 10.0 mi SW 5.8 mph - N/A   Clear
10:56 PM 1.0 °F -11.7 °F -8.0 °F 66% 30.28 in 10.0 mi SW 6.9 mph - N/A   Clear
11:56 PM -2.9 °F - -9.9 °F 72% 30.29 in 10.0 mi Calm Calm - N/A   Clear